Hourly Data Report for March 08, 2018

MIRAMICHI RCS
NEW BRUNSWICK

47°00'34.000" N
65°27'54.000" W
33.00 m
8100989
71744
ACQ

Download Data

Hourly Data (March 2018)
Hourly Data Report for March 8, 2018
TIME
LST
Temp Definition
°C
Dew Point Definition
°C
Rel Hum Definition
%
Precip. Amount Definition
mm

Wind Dir Definition
10's deg

Wind Spd Definition
km/h
Visibility Definition
km
Stn Press Definition
kPa
Hmdx Definition


Wind Chill Definition


Weather Definition


00:00 -2.3 -4.5 85 0.0 6 24   101.49   -9 LegendNANA
01:00 -2.3 -4.3 87 0.0 6 24   101.44   -9 LegendNANA
02:00 -2.2 -4.1 87 0.0 6 25   101.37   -9 LegendNANA
03:00 -2.3 -3.9 89 0.0 6 23   101.28   -9 LegendNANA
04:00 -2.2 -3.9 88 0.0 6 23   101.25   -8 LegendNANA
05:00 -2.0 -3.9 87 0.0 6 25   101.16   -8 LegendNANA
06:00 -1.9 -4.0 85 0.0 6 28   101.08   -9 LegendNANA
07:00 -1.8 -4.1 85 0.0 6 33   101.04   -9 LegendNANA
08:00 -1.8 -3.8 86 0.0 6 34   100.98   -9 LegendNANA
09:00 -1.6 -3.8 85 0.0 6 39   100.94   -9 LegendNANA
10:00 -1.4 -4.1 82 0.0 6 39   100.84   -9 LegendNANA
11:00 -1.5 -4.1 83 0.0 6 37   100.79   -9 LegendNANA
12:00 -1.3 -4.2 81 0.0 6 40   100.73   -9 LegendNANA
13:00 -1.4 -4.0 83 0.0 6 39   100.67   -9 LegendNANA
14:00 -1.8 -3.3 89 0.0 6 38   100.57   -10 LegendNANA
15:00 -2.2 -3.1 94 1.0 6 37   100.49   -10 LegendNANA
16:00 -2.2 -3.1 94 1.1 6 39   100.43   -10 LegendNANA
17:00 -2.2 -3.0 94 0.6 5 41   100.28   -10 LegendNANA
18:00 -2.1 -2.9 94 1.4 6 44   100.21   -11 LegendNANA
19:00 -2.0 -2.8 94 0.7 6 42   100.18   -10 LegendNANA
20:00 -1.8 -2.7 94 0.8 6 42   100.14   -10 LegendNANA
21:00 -1.7 -2.6 94 0.5 6 36   100.08   -9 LegendNANA
22:00 -1.6 -2.4 94 0.2 6 31   100.02   -9 LegendNANA
23:00 -1.4 -2.1 95 0.2 6 28   99.97   -8 LegendNANA

Notes on Data Quality.

Legend

  • E = Estimated
  • M = Missing
  • NA = Not Available*
  • [empty] = Indicates an unobserved value
Date modified: